• MPC Preparation (Info)

  • MPEC 2016-L45 : 2016 LT1

    The following Minor Planet Electronic Circular may be linked-to from your own Web pages, but must not otherwise be redistributed electronically.

    A form allowing access to any MPEC is at the bottom of this page.


    Read MPEC 2016-L44 Read MPEC 2016-L46


    M.P.E.C. 2016-L45                                Issued 2016 June 5, 15:35 UT
    
         The Minor Planet Electronic Circulars contain information on unusual
             minor planets and routine data on comets.  They are published
        on behalf of Division F of the International Astronomical Union by the
              Minor Planet Center, Smithsonian Astrophysical Observatory,
                              Cambridge, MA 02138, U.S.A.
    
                 Prepared using the Tamkin Foundation Computer Network
    
                                  MPC@CFA.HARVARD.EDU
                URL https://www.minorplanetcenter.net/    ISSN 1523-6714
    
                                       2016 LT1
    
    Observations:
         K16L01T* C2016 06 04.41085 15 31 08.000+00 10 51.13         21.0 wLEL045F51
         K16L01T  C2016 06 04.42412 15 31 08.106+00 10 25.57         21.2 wLEL045F51
         K16L01T  C2016 06 04.43732115 31 08.300+00 09 59.60         20.5 RtEL045F51
         K16L01T  C2016 06 04.45054 15 31 08.589+00 09 33.66         21.1 wLEL045F51
         K16L01T KC2016 06 04.89856415 33 58.342-00 08 59.00         20.0 RqEL045J04
         K16L01T KC2016 06 04.90545615 33 59.142-00 09 17.54         20.1 RqEL045J04
         K16L01T KC2016 06 04.91137215 33 59.804-00 09 33.47         20.0 RqEL045J04
         K16L01T KC2016 06 05.56830 15 37 59.42 -00 29 52.2          19.8 RtEL045474
         K16L01T KC2016 06 05.57041 15 38 00.11 -00 29 59.9          20.1 RtEL045474
         K16L01T KC2016 06 05.57252 15 38 00.81 -00 30 09.1          20.5 RtEL045474
         K16L01T KC2016 06 05.57463 15 38 01.48 -00 30 17.2          19.7 RtEL045474
    
    Observer details:
    474 Mount John Observatory, Lake Tekapo.  Observers A. C. Gilmore,
        P. M. Kilmartin.  Measurer P. M. Kilmartin.  1.0-m f/7.7 reflector + CCD.
    F51 Pan-STARRS 1, Haleakala.  Observers B. Gibson, T. Goggia, N. Primak,
        A. Schultz, M. Willman.  Measurers K. Chambers, S. Chastel, L. Denneau,
        H. Flewelling, M. Huber, E. Lilly, E. Magnier, R. Wainscoat, C. Waters,
        R. Weryk, M. Micheli.  1.8-m Ritchey-Chretien + CCD.
    J04 ESA Optical Ground Station, Tenerife.  Observer P. Ruiz.  Measurers
        M. Micheli, D. Koschny, E. Schwab, M. Busch, A. Knoefel.  1.0-m f/4.4
        reflector + CCD.
    
    Orbital elements:
    2016 LT1                                                 Earth MOID = 0.0004 AU
    Epoch 2016 July 31.0 TT = JDT 2457600.5                 MPC
    M   7.60385              (2000.0)            P               Q
    n   0.64748849     Peri.  228.49505     +0.58068352     +0.81132782
    a   1.3232686      Node    77.12692     -0.72481246     +0.55294531
    e   0.2905118      Incl.    3.96929     -0.37074729     +0.18973313
    P   1.52           H   28.9           G   0.15           U   6
    Residuals in seconds of arc
    160604 F51  0.0   0.0     160604 J04  0.0   0.1-    160605 474  0.0   0.5+
    160604 F51  0.1-  0.1+    160604 J04  0.1-  0.1-    160605 474  0.3+  0.2-
    160604 F51  0.0   0.1-    160604 J04  0.0   0.0     160605 474  0.0   0.2+
    160604 F51  0.0   0.0     160605 474  0.2-  0.3-
    
    Ephemeris:
    2016 LT1                 a,e,i = 1.32, 0.29, 4                   q = 0.9388
    Date    TT    R. A. (2000) Decl.     Delta      r     Elong.  Phase     V
    2016 05 06    15 22 08.1 -00 35 20   0.1451  1.1481   162.5    15.3    25.9
    ...
    2016 05 21    15 21 30.5 +00 55 57   0.07505 1.0819   157.6    20.9    24.5
    ...
    2016 05 29    15 22 35.1 +01 12 27   0.04090 1.0501   152.7    26.3    23.3
    ...
    2016 06 04    15 29 45.9 +00 25 47   0.01598 1.0284   150.1    29.4    21.3
    2016 06 05    15 34 10.1 -00 07 45   0.01186 1.0250   150.5    29.2    20.6
    2016 06 06    15 43 20.5 -01 18 32   0.0077541.0217   152.1    27.7    19.6
    ...
    2016 06 12    03 25 45.6 -00 56 45   0.01719 1.0018    37.1   142.3    27.2
    ...
    2016 06 20    03 35 00.8 +00 25 01   0.05037 0.9787    41.0   137.0    28.8
    ...
    2016 07 05    03 45 38.9 +02 08 41   0.1143  0.9487    50.8   123.8    29.2
    
    A. U. Tomatic                (C) Copyright 2016 MPC           M.P.E.C. 2016-L45
    

    Read MPEC 2016-L44 Read MPEC 2016-L46


    MPEC number:

    Enter an MPEC number in one of the following forms:

    • 1997-B01 (the full form)
    • J97B01 (the packed version of the full form)
    • B01 (the abbreviated form)